User: anonymous   Login
Location: Eschertshofen
(49.3064°N, 11.5756°E)
Time: 11:46:08
(UTC+00:00)
Language:

Terra - Orbit

View from above orbital plane
View from above orbital plane
View from above satellite
View from above satellite

Ground track
Ground track

The orbit data is extracted from the following two-line orbital elements,

1 25994U 99068A   21135.89620403  .00000073  00000-0  26265-4 0  9990
2 25994  98.1765 210.9138 0001460  97.7378  24.3051 14.57130783138605
Epoch (UTC): 15 May 2021 21:30:32
Eccentricity: 0.0001460
inclination: 98.1765°
perigee height: 701 km
apogee height: 703 km
right ascension of ascending node: 210.9138°
argument of perigee: 97.7378°
revolutions per day: 14.57130783
mean anomaly at epoch: 24.3051°
orbit number at epoch: 13860

The dashed part of the orbit path shows where the satellite is in the earth's shadow,  

DLR